Погода в Уральском

Россия / Оренбургская область     52°11′37″N   58°54′52″E
темп.,
°C
ветер,
м/с
пор.,
м/с
влажн.,
%
обл.,
%
осадки,
мм/ч
давл.,
гПа
погр.,
м
18 апреля, вс
вс1823:00+12в226618 0.0 101818
02:00+10в227125 0.0 101712
05:00+9св22734 0.0 101710
08:00+10с35755 0.0 1017140
11:00+14ссв44600 0.0 1016535
14:00+17с33463 0.0 10151324
17:00+17св54417 0.0 10151637
20:00+13всв7105394 0.0 1017691
19 апреля, пн
пн1923:00+7всв9136592 0.0 1021883
02:00+3всв9135996 0.0 1024856
05:00+1всв8126699 0.0 1027830
08:000всв9125699 0.0 1028892
11:00+1всв9104292 0.0 10291102
14:00+4в893296 0.0 10291354
17:00+4всв893089 0.0 10291484
20:00+2всв7103880 0.0 10301103
20 апреля, вт
вт2023:000всв7104577 0.0 1032962
02:00−2в6104781 0.0 1033905
05:00−3всв611470 0.0 1035856
08:00−2в710390 0.0 1035965
11:00+2в78300 0.0 10351250
14:00+4в67280 0.0 10341406
17:00+5в55280 0.0 10331420
20:00+3в35390 0.0 1033102
21 апреля, ср
ср2123:00+1вюв22490 0.0 103413
02:000ююв11510 0.0 103410
05:000з00500 0.0 103510
08:00+2з22420 0.0 1036189
11:00+6зюз11310 0.0 1035681
14:00+9всв12270 0.0 10341059
17:00+11в12260 0.0 10331273
20:00+9ююз22376 0.0 103421
22 апреля, чт
чт2223:00+6юз22490 0.0 103514
02:00+5ю11493 0.0 103610
05:00+4юз11550 0.0 103710
08:00+6ююв11491 0.0 1038104
11:00+11ююв34365 0.0 10371078
14:00+13ююв45335 0.0 10361480
17:00+14ююв4433100 0.0 10361679
20:00+12ююв2245100 0.0 103633